Weather History for KAVL - September, 2011

Change the Weather History Date:

Friday, September 2, 2011

  Actual Average Record
Temperature  
Mean Temperature 77 °F 70 °F  
Max Temperature 91 °F 81 °F 91 °F (2011)
Min Temperature 62 °F 60 °F 45 °F (1967)
Degree Days  
Heating Degree Days 0 0  
Month to date heating degree days 0 0  
Since 1 July heating degree days 0 2  
Cooling Degree Days 12 6  
Month to date cooling degree days 22 12  
Year to date cooling degree days 1117 769  
Growing Degree Days 26 (Base 50)    
Moisture  
Dew Point 64 °F    
Average Humidity 71    
Maximum Humidity 100    
Minimum Humidity 41    
Precipitation  
Precipitation T in 0.13 in 1.40 in (1870)
Month to date precipitation T 0.27  
Year to date precipitation 29.48 31.88  
Snow  
Snow 0.00 in 0.00 in 0.00 in ()
Month to date snowfall 0.0 0.0  
Since 1 July snowfall 0.0 0.0  
Since 1 September snowfall 0.0 0.0  
Snow Depth 0.00 in    
Sea Level Pressure  
Sea Level Pressure 30.09 in    
Wind  
Wind Speed 4 mph (NNW)    
Max Wind Speed 14 mph    
Max Gust Speed 23 mph    
Visibility 8 miles    
Events Rain    
T = Trace of Precipitation, MM = Missing Value Source: NWS Daily Summary

Daily Weather History Graph

Daily Weather History Graph

Search for Another Location

Airport or City:

Trip Planner

Search our weather history database for the weather conditions in past years. The results will help you decide how hot, cold, wet, or windy it might be!

Date:

Astronomy

Sep. 02, 2011 Rise Set
Actual Time 7:02 AM EDT 7:56 PM EDT
Civil Twilight 6:37 AM EDT 8:22 PM EDT
Nautical Twilight 6:06 AM EDT 8:52 PM EDT
Astronomical Twilight 5:34 AM EDT 9:24 PM EDT
Moon 12:18 PM EDT (9/2) 10:45 PM EDT (9/2)
Length of Visible Light 13h 45m
Length of Day
12h 53m
Waxing Crescent, 27% of the Moon is Illuminated
Sep 2
Waxing Crescent
Sep 4
First Quarter
Sep 12
Full
Sep 20
Last Quarter
Sep 27
New

Hourly Weather History & Observations

Time (EDT) Temp. Heat Index Dew Point Humidity Pressure Visibility Wind Dir Wind Speed Gust Speed Precip Events Conditions
12:54 AM 69.1 °F - 66.0 °F 90% 30.10 in 7.0 mi Calm Calm - N/A   Scattered Clouds
1:54 AM 66.2 °F - 64.4 °F 94% 30.16 in 6.0 mi NNW 3.5 mph - N/A   Clear
2:54 AM 64.4 °F - 64.4 °F 100% 30.16 in 5.0 mi Calm Calm - N/A   Clear
3:30 AM 64.4 °F - 62.6 °F 94% 30.17 in 2.5 mi Calm Calm - N/A   Partly Cloudy
3:51 AM 64.4 °F - 62.6 °F 94% 30.16 in 5.0 mi Calm Calm - N/A   Partly Cloudy
3:54 AM 64.9 °F - 63.0 °F 93% 30.08 in 5.0 mi Calm Calm - N/A   Scattered Clouds
4:54 AM 64.0 °F - 63.0 °F 96% 30.08 in 5.0 mi Calm Calm - N/A   Clear
5:54 AM 63.0 °F - 61.0 °F 93% 30.09 in 5.0 mi Calm Calm - N/A   Clear
6:07 AM 62.6 °F - 60.8 °F 94% 30.17 in 5.0 mi Calm Calm - N/A   Partly Cloudy
6:54 AM 62.6 °F - 62.6 °F 100% 30.17 in 5.0 mi NNW 3.5 mph - N/A   Clear
7:54 AM 64.0 °F - 62.1 °F 93% 30.12 in 4.0 mi Calm Calm - N/A   Clear
8:54 AM 69.1 °F - 64.0 °F 84% 30.11 in 7.0 mi NNW 3.5 mph - N/A   Clear
9:54 AM 75.9 °F - 64.0 °F 67% 30.10 in 9.0 mi North 5.8 mph - N/A   Clear
10:54 AM 82.0 °F 83.4 °F 64.0 °F 54% 30.10 in 10.0 mi North 8.1 mph - N/A   Clear
11:54 AM 84.9 °F 85.9 °F 63.0 °F 48% 30.08 in 10.0 mi NNW 13.8 mph 17.3 mph N/A   Clear
12:54 PM 89.1 °F 90.0 °F 63.0 °F 42% 30.06 in 10.0 mi NW 8.1 mph 16.1 mph N/A   Clear
1:54 PM 90.0 °F 90.6 °F 63.0 °F 40% 30.04 in 10.0 mi North 8.1 mph - N/A   Partly Cloudy
2:54 PM 80.6 °F 82.3 °F 64.4 °F 58% 30.12 in 10.0 mi Variable 4.6 mph - N/A Rain Light Rain
3:54 PM 82.0 °F 83.4 °F 64.0 °F 54% 30.03 in 10.0 mi Calm Calm - 0.00 in   Clear
4:54 PM 86.0 °F 88.2 °F 66.0 °F 51% 30.00 in 10.0 mi SW 5.8 mph - N/A   Clear
5:54 PM 84.9 °F 86.6 °F 64.9 °F 51% 29.99 in 10.0 mi Calm Calm - N/A   Clear
6:54 PM 84.2 °F 86.6 °F 66.2 °F 55% 30.08 in 10.0 mi SSE 3.5 mph - N/A   Clear
7:54 PM 81.0 °F 83.8 °F 68.0 °F 65% 30.00 in 10.0 mi Calm Calm - N/A   Clear
8:54 PM 78.1 °F - 69.1 °F 74% 30.01 in 10.0 mi Calm Calm - N/A   Partly Cloudy
9:54 PM 75.9 °F - 64.9 °F 69% 30.06 in 10.0 mi NE 9.2 mph 23.0 mph N/A   Scattered Clouds
10:54 PM 75.0 °F - 63.0 °F 66% 30.05 in 10.0 mi WNW 4.6 mph - N/A   Partly Cloudy
11:54 PM 73.0 °F - 66.0 °F 79% 30.03 in 10.0 mi Calm Calm - N/A   Clear